Regional Weather Roundup
Issued by NWS

Home | Current Version | Previous Version | Graphics & Text | Print | Product List | Glossary On
Versions: 1 2 3 4 5 6 7 8 9 10 11 12 13 14 15 16 17 18 19 20 21 22 23 24 25 26 27 28 29 30 31 32 33 34 35 36 37 38 39 40 41 42 43 44 45 46 47 48 49 50
000
ASUS43 KDMX 192106
RWRIA

WEATHER ROUNDUP FOR IOWA
NATIONAL WEATHER SERVICE DES MOINES IA
300 PM CST THU JAN 19 2017

NOTE: "FAIR" INDICATES FEW OR NO CLOUDS BELOW 12,000 FEET WITH NO
SIGNIFICANT WEATHER AND/OR OBSTRUCTIONS TO VISIBILITY.

* - THESE STATIONS ARE NOT NWS STATIONS...THUS NOT UNDER NWS
QUALITY CONTROL.  THEY ALSO DO NOT REPORT WEATHER SUCH
AS PRECIPITATION OR FOG.

IAZ001>003-012>014-020>022-031>034-043>046-192200-
   NORTHWEST IOWA

CITY           SKY/WX    TMP DP  RH WIND       PRES   REMARKS
CARROLL *      FOG       37  37 100 SE8       29.68S VSB 3/4 WCI  31
CHEROKEE *     CLOUDY    42  41  96 SE7       29.67S FOG
DENISON *      CLOUDY    43  41  93 SE6       29.65S FOG
LE MARS *      CLOUDY    41  39  93 S8        29.66S
ORANGE CITY *  CLOUDY    39  39 100 S5        29.65F FOG
SHELDON *      CLOUDY    39  39 100 S10       29.65R FOG     WCI  32
SIOUX CITY     FOG       41  39  93 S7        29.66F VSB 1
SPENCER        CLOUDY    40  38  93 SE10      29.67F FOG     WCI  33
STORM LAKE *   CLOUDY    39  39 100 SE12      29.66F FOG     WCI  32
$$

IAZ055>058-069>071-079>083-090>094-192200-
   SOUTHWEST IOWA

CITY           SKY/WX    TMP DP  RH WIND       PRES   REMARKS
ATLANTIC *     CLOUDY    43  41  93 SE5       29.67F FOG
AUDUBON *      FOG       41  39  93 SE5       29.68F VSB 3/4
CLARINDA *     CLOUDY    45  45 100 CALM      29.69S
COUNCIL BLFS * CLOUDY    41  41 100 S6        29.67S FOG
CRESTON *      FOG       43  43 100 E3        29.69F VSB<1/4
HARLAN  *      CLOUDY    43  41  93 SE7       29.69F FOG
LAMONI         CLOUDY    44  43  96 E5        29.67F FOG
RED OAK *      CLOUDY    45  45 100 SE3       29.67S
SHENANDOAH *   CLOUDY    45  43  93 SE7       29.68S
$$

IAZ047>049-059>061-072>074-084-192200-
   CENTRAL IOWA

CITY           SKY/WX    TMP DP  RH WIND       PRES   REMARKS
AMES           FOG       37  37 100 SE8       29.72F VSB 3/4 WCI  31
ANKENY *       FOG       37  37 100 E3        29.73F VSB 1
BOONE *        MIX PCPN  37  37 100 SE9       29.70F VSB 1/4 WCI  31
CHARITON *     FOG       39  39 100 E7        29.70F VSB 1/4 WCI  34
DES MOINES     FOG       39  38  96 NE3       29.71F VSB 1
GRINNELL*      RAIN      36  35  99 E9        29.72F WCI  29
KNOXVILLE *    CLOUDY    37  37 100 E7        29.70F FOG     WCI  32
MARSHALLTOWN   LGT RAIN  36  36 100 E9        29.72F FOG     WCI  29
NEWTON *       CLOUDY    37  37 100 SE7       29.72S FOG     WCI  32
PELLA *        CLOUDY    37  37  99 SE7       29.74S FOG     WCI  31
PERRY *        CLOUDY    39  39  97 E9        29.70F FOG     WCI  33
$$

IAZ004>006-015-016-023>025-035-036-192200-
   NORTH CENTRAL IOWA

CITY           SKY/WX    TMP DP  RH WIND       PRES   REMARKS
ALGONA *       CLOUDY    39  37  93 SE9G15    29.70F WCI  33
CLARION *      CLOUDY    37  37 100 E7        29.71F WCI  32
ESTHERVILLE    CLOUDY    36  36 100 SE13      29.68S FOG     WCI  27
FORT DODGE *   CLOUDY    39  36  87 E8        29.70F WCI  34
MASON CITY     CLOUDY    34  33  96 E7        29.75F FOG     WCI  28
FOREST CITY *  CLOUDY    36  32  87 SE12      29.73F WCI  27
WEBSTER CITY * CLOUDY    37  37 100 E8        29.69F FOG     WCI  31
IOWA FALLS *   CLOUDY    37  36  96 E6        29.74F FOG     WCI  32
$$

IAZ007>011-017>019-026>030-037>042-050>054-066-192200-
   NORTHEAST IOWA

CITY           SKY/WX    TMP DP  RH WIND       PRES   REMARKS
CEDAR RAPIDS   LGT RAIN  37  37 100 E12       29.75F FOG     WCI  29
CHARLES CITY * LGT RAIN  36  36 100 SE7       29.77F WCI  30
CLINTON *      LGT RAIN  38  36  92 SE10      29.84F FOG     WCI  31
DECORAH *      CLOUDY    34  34 100 E3        29.79S FOG
DUBUQUE        MIX PCPN  37  36  96 SE6       29.82F FOG     WCI  32
MONTICELLO *   CLOUDY    37  37 100 SE8       29.80F FOG     WCI  31
OELWEIN *      MIX PCPN  36  36 100 E8        29.79S WCI  29
WATERLOO       MIX PCPN  36  35  96 E8        29.76F FOG     WCI  30
$$

IAZ064-065-067-068-078-192200-
   EAST CENTRAL IOWA

CITY           SKY/WX    TMP DP  RH WIND       PRES   REMARKS
DAVENPORT      RAIN      38  37  97 E10       29.82F FOG     WCI  31
IOWA CITY      RAIN      39  37  92 E9        29.78F VSB 1   WCI  33
MUSCATINE *    LGT RAIN  39  39 100 E8        29.79S VSB 1/2 WCI  34
QUAD CITIES    HVY RAIN  41  38  89 E8        29.81F FOG
$$

IAZ062-063-075>077-085>089-095>099-192200-
   SOUTHEAST IOWA

CITY           SKY/WX    TMP DP  RH WIND       PRES   REMARKS
BURLINGTON     CLOUDY    40  40 100 E8        29.75F FOG     WCI  34
FAIRFIELD *    FOG       39  37  93 E12       29.74F VSB 1   WCI  32
FORT MADISON * FOG       39  39 100 E8        29.75F VSB 3/4 WCI  34
KEOKUK *       CLOUDY    43  43 100 E9        29.73F FOG
OSKALOOSA *    RAIN      37  37  98 E10       29.73F WCI  30
OTTUMWA        CLOUDY    40  38  93 E9        29.72F FOG     WCI  34
WASHINGTON *   CLOUDY    37  37 100 E12       29.76F FOG     WCI  30
$$

ABBREVIATIONS USED IN REMARKS
   TC - TEMPERATURES IN CELSIUS
  WCI - WIND CHILL INDEX
   HX - HEAT INDEX
  VSB - VISIBILITY
$$





USA.gov is the U.S. government's official web portal to all federal, state and local government web resources and services.